TimeMDT,TemperatureF,Dew PointF,Humidity,Sea Level PressureIn,VisibilityMPH,Wind Direction,Wind SpeedMPH,Gust SpeedMPH,PrecipitationIn,Events,Conditions,WindDirDegrees,DateUTC
12:53 AM,28.9,19.9,69,30.12,10.0,East,5.8,-,N/A,,Clear,80,2012-10-30 06:53:00
1:53 AM,28.9,19.9,69,30.13,10.0,East,4.6,-,N/A,,Clear,100,2012-10-30 07:53:00
2:53 AM,26.1,19.9,78,30.14,10.0,East,3.5,-,N/A,,Clear,80,2012-10-30 08:53:00
3:53 AM,23.0,19.0,85,30.16,10.0,ENE,4.6,-,N/A,,Clear,60,2012-10-30 09:53:00
4:53 AM,23.0,19.0,85,30.17,10.0,NE,6.9,-,N/A,,Clear,50,2012-10-30 10:53:00
5:53 AM,27.0,19.9,75,30.17,10.0,NE,8.1,-,N/A,,Clear,50,2012-10-30 11:53:00
6:53 AM,28.0,19.9,72,30.18,10.0,ENE,9.2,-,N/A,,Clear,60,2012-10-30 12:53:00
7:53 AM,28.0,21.0,75,30.19,10.0,NE,8.1,-,N/A,,Clear,50,2012-10-30 13:53:00
8:53 AM,32.0,21.9,66,30.19,10.0,NE,8.1,-,N/A,,Clear,40,2012-10-30 14:53:00
9:53 AM,39.9,21.0,47,30.16,10.0,Variable,3.5,-,N/A,,Clear,0,2012-10-30 15:53:00
10:53 AM,42.1,19.9,41,30.17,10.0,Variable,4.6,-,N/A,,Clear,0,2012-10-30 16:53:00
11:53 AM,46.0,19.0,34,30.13,10.0,Variable,5.8,-,N/A,,Clear,0,2012-10-30 17:53:00
12:53 PM,48.0,16.0,28,30.06,10.0,NNW,8.1,-,N/A,,Clear,340,2012-10-30 18:53:00
1:53 PM,48.9,17.1,28,30.04,10.0,Variable,4.6,-,N/A,,Clear,0,2012-10-30 19:53:00
2:53 PM,50.0,14.0,24,30.04,10.0,WNW,12.7,19.6,N/A,,Clear,300,2012-10-30 20:53:00
3:53 PM,50.0,14.0,24,30.06,10.0,West,12.7,-,N/A,,Clear,260,2012-10-30 21:53:00
4:53 PM,48.9,14.0,25,30.08,10.0,WNW,13.8,-,N/A,,Clear,300,2012-10-30 22:53:00
5:53 PM,44.1,17.1,34,30.09,10.0,NW,8.1,-,N/A,,Clear,320,2012-10-30 23:53:00
6:53 PM,39.9,19.0,43,30.14,10.0,NE,4.6,-,N/A,,Clear,40,2012-10-31 00:53:00
7:53 PM,34.0,19.0,54,30.19,10.0,NNE,5.8,-,N/A,,Clear,20,2012-10-31 01:53:00
8:53 PM,30.9,19.0,61,30.18,10.0,ENE,8.1,-,N/A,,Clear,70,2012-10-31 02:53:00
9:53 PM,33.1,19.9,59,30.11,10.0,ENE,6.9,-,N/A,,Clear,60,2012-10-31 03:53:00
10:53 PM,28.0,19.0,69,30.15,10.0,NE,9.2,-,N/A,,Clear,50,2012-10-31 04:53:00
11:53 PM,30.9,19.9,64,30.10,10.0,ENE,6.9,-,N/A,,Clear,60,2012-10-31 05:53:00